| time (UTC) | temp F | wind direction | speed MPH | gust MPH | rain 1hr in | rain 24hr in | rain mn in | humidity % | barometer mb |
| 20260906212503 | 77 | 316 | 4.0 | 6.0 | 0.00 | 0.00 | 0.00 | 72 | 1016.3 |
| 20260906212003 | 77 | 309 | 3.0 | 6.0 | 0.00 | 0.00 | 0.00 | 71 | 1016.3 |
| 20260906211503 | 77 | 307 | 2.0 | 3.0 | 0.00 | 0.00 | 0.00 | 71 | 1016.3 |
| 20260906211003 | 77 | 310 | 3.0 | 4.0 | 0.00 | 0.00 | 0.00 | 70 | 1016.3 |
| 20260906210503 | 77 | 315 | 3.0 | 4.0 | 0.00 | 0.00 | 0.00 | 70 | 1016.3 |
| 20260906210003 | 77 | 324 | 2.0 | 3.0 | 0.00 | 0.00 | 0.00 | 70 | 1016.3 |
| 20260906205505 | 77 | 339 | 1.0 | 3.0 | 0.00 | 0.00 | 0.00 | 70 | 1016.3 |
| 20260906205217 | 77 | 331 | 1.0 | 3.0 | 0.00 | 0.00 | 0.00 | 69 | 1016.3 |
| 20260906204714 | 78 | 309 | 2.0 | 4.0 | 0.00 | 0.00 | 0.00 | 69 | 1016.3 |
| 20260906204003 | 78 | 315 | 2.0 | 4.0 | 0.00 | 0.00 | 0.00 | 69 | 1016.3 |
| 20260906203505 | 78 | 315 | 3.0 | 5.0 | 0.00 | 0.00 | 0.00 | 69 | 1016.3 |
| 20260906203004 | 78 | 315 | 4.0 | 5.0 | 0.00 | 0.00 | 0.00 | 69 | 1016.3 |
| 20260906202504 | 78 | 315 | 3.0 | 5.0 | 0.00 | 0.00 | 0.00 | 69 | 1016.3 |
| 20260906202005 | 78 | 315 | 3.0 | 4.0 | 0.00 | 0.00 | 0.00 | 69 | 1016.3 |
| 20260906201504 | 79 | 317 | 4.0 | 5.0 | 0.00 | 0.00 | 0.00 | 69 | 1016.3 |
| 20260906201004 | 79 | 317 | 4.0 | 5.0 | 0.00 | 0.00 | 0.00 | 68 | 1016.3 |
| 20260906200718 | 79 | 317 | 4.0 | 5.0 | 0.00 | 0.00 | 0.00 | 68 | 1016.3 |
| 20260906200004 | 79 | 315 | 4.0 | 5.0 | 0.00 | 0.00 | 0.00 | 67 | 1016.3 |
| 20260906195504 | 79 | 319 | 3.0 | 5.0 | 0.00 | 0.00 | 0.00 | 67 | 1016.3 |
| 20260906195217 | 79 | 323 | 3.0 | 5.0 | 0.00 | 0.00 | 0.00 | 67 | 1016.3 |
| 20260906194505 | 79 | 329 | 4.0 | 5.0 | 0.00 | 0.00 | 0.00 | 67 | 1016.3 |
| 20260906194004 | 79 | 323 | 4.0 | 5.0 | 0.00 | 0.00 | 0.00 | 66 | 1016.3 |
| 20260906193504 | 79 | 318 | 3.0 | 5.0 | 0.00 | 0.00 | 0.00 | 66 | 1016.3 |
| 20260906193214 | 79 | 325 | 2.0 | 5.0 | 0.00 | 0.00 | 0.00 | 66 | 1016.3 |
| 20260906192503 | 80 | 324 | 1.0 | 3.0 | 0.00 | 0.00 | 0.00 | 65 | 1016.3 |
| 20260906192004 | 80 | 319 | 2.0 | 4.0 | 0.00 | 0.00 | 0.00 | 65 | 1016.3 |
| 20260906191504 | 80 | 320 | 4.0 | 4.0 | 0.00 | 0.00 | 0.00 | 65 | 1016.3 |
| 20260906191004 | 81 | 324 | 4.0 | 5.0 | 0.00 | 0.00 | 0.00 | 63 | 1016.3 |
| 20260906190714 | 81 | 324 | 4.0 | 5.0 | 0.00 | 0.00 | 0.00 | 63 | 1016.3 |
| 20260906190217 | 81 | 318 | 4.0 | 5.0 | 0.00 | 0.00 | 0.00 | 63 | 1016.3 |
| 20260906185504 | 81 | 310 | 3.0 | 4.0 | 0.00 | 0.00 | 0.00 | 62 | 1016.3 |
| 20260906185004 | 81 | 310 | 3.0 | 4.0 | 0.00 | 0.00 | 0.00 | 62 | 1016.3 |
| 20260906184716 | 81 | 308 | 3.0 | 4.0 | 0.00 | 0.00 | 0.00 | 62 | 1016.3 |
| 20260906184003 | 82 | 306 | 4.0 | 8.0 | 0.00 | 0.00 | 0.00 | 61 | 1016.3 |
| 20260906183503 | 82 | 296 | 5.0 | 8.0 | 0.00 | 0.00 | 0.00 | 60 | 1016.3 |
| 20260906183004 | 83 | 304 | 5.0 | 6.0 | 0.00 | 0.00 | 0.00 | 60 | 1016.3 |
| 20260906182503 | 83 | 318 | 4.0 | 5.0 | 0.00 | 0.00 | 0.00 | 59 | 1016.3 |
| 20260906182004 | 83 | 315 | 4.0 | 5.0 | 0.00 | 0.00 | 0.00 | 59 | 1016.3 |
| 20260906181504 | 83 | 315 | 4.0 | 4.0 | 0.00 | 0.00 | 0.00 | 58 | 1016.3 |
| 20260906181003 | 84 | 320 | 4.0 | 5.0 | 0.00 | 0.00 | 0.00 | 58 | 1016.3 |
| 20260906180504 | 84 | 320 | 4.0 | 7.0 | 0.00 | 0.00 | 0.00 | 57 | 1016.3 |
| 20260906180217 | 84 | 315 | 4.0 | 7.0 | 0.00 | 0.00 | 0.00 | 56 | 1016.3 |
| 20260906175503 | 85 | 315 | 5.0 | 7.0 | 0.00 | 0.00 | 0.00 | 56 | 1015.3 |
| 20260906175003 | 85 | 315 | 4.0 | 5.0 | 0.00 | 0.00 | 0.00 | 55 | 1015.3 |
| 20260906174503 | 85 | 315 | 4.0 | 6.0 | 0.00 | 0.00 | 0.00 | 55 | 1015.3 |
| 20260906174214 | 86 | 318 | 4.0 | 6.0 | 0.00 | 0.00 | 0.00 | 54 | 1015.3 |
| 20260906173503 | 86 | 320 | 6.0 | 9.0 | 0.00 | 0.00 | 0.00 | 54 | 1015.3 |
| 20260906173215 | 86 | 320 | 6.0 | 9.0 | 0.00 | 0.00 | 0.00 | 53 | 1015.3 |
| 20260906172503 | 87 | 322 | 7.0 | 9.0 | 0.00 | 0.00 | 0.00 | 53 | 1015.3 |
| 20260906172004 | 87 | 326 | 8.0 | 10.0 | 0.00 | 0.00 | 0.00 | 54 | 1015.3 |
| 20260906171503 | 88 | 310 | 7.0 | 10.0 | 0.00 | 0.00 | 0.00 | 54 | 1015.3 |
| 20260906171003 | 88 | 309 | 7.0 | 10.0 | 0.00 | 0.00 | 0.00 | 57 | 1015.3 |
| 20260906170503 | 88 | 320 | 6.0 | 10.0 | 0.00 | 0.00 | 0.00 | 60 | 1015.3 |
| 20260906135506 | 90 | 304 | 18.0 | 24.0 | 0.00 | 0.00 | 0.00 | 55 | 1015.3 |
| 20260906134504 | 91 | 304 | 16.0 | 24.0 | 0.00 | 0.00 | 0.00 | 55 | 1015.3 |
| 20260906134004 | 91 | 301 | 15.0 | 19.0 | 0.00 | 0.00 | 0.00 | 54 | 1015.3 |
| 20260906133504 | 91 | 297 | 15.0 | 18.0 | 0.00 | 0.00 | 0.00 | 53 | 1015.3 |
| 20260906133004 | 91 | 297 | 18.0 | 25.0 | 0.00 | 0.00 | 0.00 | 52 | 1015.3 |
| 20260906132504 | 91 | 297 | 20.0 | 25.0 | 0.00 | 0.00 | 0.00 | 50 | 1015.3 |
| 20260906132004 | 91 | 297 | 19.0 | 25.0 | 0.00 | 0.00 | 0.00 | 53 | 1015.3 |
| 20260906131505 | 90 | 294 | 16.0 | 24.0 | 0.00 | 0.00 | 0.00 | 51 | 1015.3 |
| 20260906131004 | 91 | 285 | 16.0 | 24.0 | 0.00 | 0.00 | 0.00 | 52 | 1015.3 |
| 20260906130504 | 90 | 274 | 17.0 | 24.0 | 0.00 | 0.00 | 0.00 | 56 | 1015.3 |
| 20260906130004 | 90 | 277 | 19.0 | 24.0 | 0.00 | 0.00 | 0.00 | 56 | 1016.3 |
| 20260906125504 | 90 | 278 | 21.0 | 24.0 | 0.00 | 0.00 | 0.00 | 56 | 1016.3 |
| 20260906125214 | 89 | 286 | 20.0 | 24.0 | 0.00 | 0.00 | 0.00 | 56 | 1016.3 |
| 20260906124504 | 89 | 292 | 19.0 | 23.0 | 0.00 | 0.00 | 0.00 | 57 | 1016.3 |
| 20260906124005 | 89 | 290 | 19.0 | 24.0 | 0.00 | 0.00 | 0.00 | 57 | 1016.3 |
| 20260906123503 | 89 | 286 | 20.0 | 26.0 | 0.00 | 0.00 | 0.00 | 56 | 1016.3 |
| 20260906123004 | 89 | 292 | 19.0 | 26.0 | 0.00 | 0.00 | 0.00 | 55 | 1016.3 |
| 20260906122503 | 89 | 283 | 19.0 | 24.0 | 0.00 | 0.00 | 0.00 | 58 | 1016.3 |
| 20260906122216 | 89 | 284 | 19.0 | 24.0 | 0.00 | 0.00 | 0.00 | 58 | 1016.3 |
| 20260906121503 | 89 | 281 | 19.0 | 26.0 | 0.00 | 0.00 | 0.00 | 59 | 1015.3 |
| 20260906121217 | 89 | 277 | 19.0 | 26.0 | 0.00 | 0.00 | 0.00 | 60 | 1015.3 |
| 20260906120715 | 89 | 280 | 19.0 | 24.0 | 0.00 | 0.00 | 0.00 | 60 | 1015.3 |
| 20260906120004 | 89 | 303 | 19.0 | 27.0 | 0.00 | 0.00 | 0.00 | 60 | 1016.3 |
| 20260906115503 | 89 | 285 | 20.0 | 27.0 | 0.00 | 0.00 | 0.00 | 59 | 1016.3 |
| 20260906115003 | 89 | 281 | 19.0 | 25.0 | 0.00 | 0.00 | 0.00 | 60 | 1016.3 |
| 20260906114503 | 89 | 284 | 18.0 | 25.0 | 0.00 | 0.00 | 0.00 | 60 | 1016.3 |
| 20260906114004 | 89 | 295 | 18.0 | 26.0 | 0.00 | 0.00 | 0.00 | 59 | 1016.3 |
| 20260906113503 | 89 | 292 | 19.0 | 26.0 | 0.00 | 0.00 | 0.00 | 58 | 1016.3 |
| 20260906113003 | 89 | 299 | 18.0 | 26.0 | 0.00 | 0.00 | 0.00 | 59 | 1016.3 |
| 20260906112503 | 89 | 296 | 16.0 | 22.0 | 0.00 | 0.00 | 0.00 | 58 | 1016.3 |
| 20260906112004 | 89 | 286 | 16.0 | 21.0 | 0.00 | 0.00 | 0.00 | 57 | 1016.3 |
| 20260906111503 | 89 | 292 | 17.0 | 20.0 | 0.00 | 0.00 | 0.00 | 59 | 1016.3 |
| 20260906111003 | 89 | 287 | 17.0 | 23.0 | 0.00 | 0.00 | 0.00 | 59 | 1016.3 |
| 20260906110503 | 89 | 290 | 17.0 | 23.0 | 0.00 | 0.00 | 0.00 | 58 | 1016.3 |
| 20260906110004 | 89 | 289 | 17.0 | 23.0 | 0.00 | 0.00 | 0.00 | 58 | 1016.3 |
| 20260906105503 | 89 | 278 | 15.0 | 22.0 | 0.00 | 0.00 | 0.00 | 59 | 1016.3 |
| 20260906105003 | 89 | 271 | 16.0 | 18.0 | 0.00 | 0.00 | 0.00 | 59 | 1016.3 |
| 20260906104503 | 89 | 277 | 16.0 | 24.0 | 0.00 | 0.00 | 0.00 | 59 | 1016.3 |
| 20260906104003 | 88 | 291 | 17.0 | 24.0 | 0.00 | 0.00 | 0.00 | 61 | 1016.3 |
| 20260906103714 | 88 | 299 | 17.0 | 23.0 | 0.00 | 0.00 | 0.00 | 61 | 1016.3 |
| 20260906103217 | 88 | 305 | 18.0 | 23.0 | 0.00 | 0.00 | 0.00 | 61 | 1016.3 |
| 20260906102504 | 88 | 283 | 17.0 | 24.0 | 0.00 | 0.00 | 0.00 | 61 | 1016.3 |
| 20260906102004 | 88 | 287 | 18.0 | 24.0 | 0.00 | 0.00 | 0.00 | 62 | 1016.3 |
| 20260906101504 | 88 | 291 | 17.0 | 24.0 | 0.00 | 0.00 | 0.00 | 63 | 1016.3 |
| 20260906101004 | 88 | 283 | 15.0 | 23.0 | 0.00 | 0.00 | 0.00 | 64 | 1016.3 |
| 20260906100505 | 88 | 277 | 16.0 | 23.0 | 0.00 | 0.00 | 0.00 | 64 | 1016.3 |
| 20260906100004 | 87 | 272 | 16.0 | 21.0 | 0.00 | 0.00 | 0.00 | 65 | 1016.3 |
| 20260906095505 | 87 | 270 | 17.0 | 22.0 | 0.00 | 0.00 | 0.00 | 66 | 1016.3 |
| 20260906095215 | 87 | 272 | 17.0 | 22.0 | 0.00 | 0.00 | 0.00 | 66 | 1016.3 |
| 20260906094713 | 87 | 274 | 17.0 | 22.0 | 0.00 | 0.00 | 0.00 | 66 | 1016.3 |
| 20260906094004 | 87 | 283 | 18.0 | 22.0 | 0.00 | 0.00 | 0.00 | 67 | 1016.3 |
| 20260906093504 | 87 | 291 | 16.0 | 22.0 | 0.00 | 0.00 | 0.00 | 68 | 1016.3 |
| 20260906093004 | 87 | 288 | 14.0 | 21.0 | 0.00 | 0.00 | 0.00 | 69 | 1016.3 |
| 20260906092504 | 87 | 279 | 14.0 | 21.0 | 0.00 | 0.00 | 0.00 | 68 | 1016.3 |
| 20260906092004 | 87 | 277 | 15.0 | 21.0 | 0.00 | 0.00 | 0.00 | 69 | 1016.3 |
| 20260906091504 | 87 | 283 | 15.0 | 21.0 | 0.00 | 0.00 | 0.00 | 70 | 1016.3 |
| 20260906091004 | 87 | 278 | 14.0 | 18.0 | 0.00 | 0.00 | 0.00 | 70 | 1016.3 |
| 20260906090717 | 87 | 279 | 14.0 | 18.0 | 0.00 | 0.00 | 0.00 | 71 | 1016.3 |
| 20260906090004 | 86 | 286 | 14.0 | 19.0 | 0.00 | 0.00 | 0.00 | 70 | 1016.3 |
| 20260906085504 | 86 | 290 | 13.0 | 17.0 | 0.00 | 0.00 | 0.00 | 71 | 1016.3 |
| 20260906085004 | 86 | 280 | 13.0 | 17.0 | 0.00 | 0.00 | 0.00 | 72 | 1016.3 |
| 20260906084504 | 86 | 283 | 12.0 | 15.0 | 0.00 | 0.00 | 0.00 | 72 | 1016.3 |
| 20260906084004 | 86 | 284 | 12.0 | 15.0 | 0.00 | 0.00 | 0.00 | 73 | 1016.3 |
| 20260906083503 | 86 | 279 | 11.0 | 17.0 | 0.00 | 0.00 | 0.00 | 74 | 1016.3 |
| 20260906083004 | 85 | 274 | 11.0 | 17.0 | 0.00 | 0.00 | 0.00 | 75 | 1016.3 |
| 20260906082503 | 85 | 270 | 11.0 | 18.0 | 0.00 | 0.00 | 0.00 | 75 | 1016.3 |
| 20260906082214 | 85 | 274 | 10.0 | 18.0 | 0.00 | 0.00 | 0.00 | 75 | 1016.3 |
| 20260906081504 | 85 | 291 | 11.0 | 14.0 | 0.00 | 0.00 | 0.00 | 76 | 1016.3 |
| 20260906081003 | 85 | 286 | 10.0 | 14.0 | 0.00 | 0.00 | 0.00 | 76 | 1016.3 |
| 20260906080503 | 85 | 275 | 9.0 | 15.0 | 0.00 | 0.00 | 0.00 | 76 | 1016.3 |
| 20260906080216 | 85 | 289 | 10.0 | 15.0 | 0.00 | 0.00 | 0.00 | 76 | 1016.3 |
| 20260906075503 | 85 | 305 | 7.0 | 13.0 | 0.00 | 0.00 | 0.00 | 76 | 1016.3 |
| 20260906075004 | 85 | 322 | 6.0 | 9.0 | 0.00 | 0.00 | 0.00 | 76 | 1016.3 |
| 20260906074504 | 84 | 321 | 7.0 | 9.0 | 0.00 | 0.00 | 0.00 | 76 | 1016.3 |
| 20260906074003 | 84 | 318 | 7.0 | 11.0 | 0.00 | 0.00 | 0.00 | 77 | 1016.3 |
| 20260906073503 | 83 | 321 | 6.0 | 11.0 | 0.00 | 0.00 | 0.00 | 79 | 1016.3 |
| 20260906073003 | 83 | 324 | 9.0 | 13.0 | 0.00 | 0.00 | 0.00 | 81 | 1016.3 |
| 20260906072503 | 83 | 313 | 10.0 | 13.0 | 0.00 | 0.00 | 0.00 | 82 | 1016.3 |
| 20260906072003 | 82 | 305 | 9.0 | 13.0 | 0.00 | 0.00 | 0.00 | 85 | 1016.3 |
| 20260906071503 | 82 | 313 | 8.0 | 13.0 | 0.00 | 0.00 | 0.00 | 85 | 1016.3 |
| 20260906071003 | 82 | 323 | 10.0 | 13.0 | 0.00 | 0.00 | 0.00 | 85 | 1016.3 |
| 20260906070503 | 81 | 319 | 10.0 | 13.0 | 0.00 | 0.00 | 0.00 | 86 | 1016.3 |
| 20260906070005 | 81 | 315 | 9.0 | 10.0 | 0.00 | 0.00 | 0.00 | 87 | 1016.3 |
| 20260906065503 | 81 | 318 | 7.0 | 10.0 | 0.00 | 0.00 | 0.00 | 88 | 1016.3 |
| 20260906065003 | 80 | 313 | 6.0 | 10.0 | 0.00 | 0.00 | 0.00 | 89 | 1016.3 |
| 20260906064503 | 80 | 312 | 7.0 | 10.0 | 0.00 | 0.00 | 0.00 | 89 | 1016.3 |
| 20260906064003 | 79 | 318 | 6.0 | 10.0 | 0.00 | 0.00 | 0.00 | 89 | 1016.3 |
| 20260906063504 | 79 | 331 | 5.0 | 9.0 | 0.00 | 0.00 | 0.00 | 90 | 1016.3 |
| 20260906063003 | 78 | 326 | 5.0 | 9.0 | 0.00 | 0.00 | 0.00 | 90 | 1016.3 |
| 20260906062503 | 77 | 320 | 4.0 | 5.0 | 0.00 | 0.00 | 0.00 | 91 | 1016.3 |
| 20260906062006 | 77 | 320 | 3.0 | 5.0 | 0.00 | 0.00 | 0.00 | 91 | 1016.3 |
| 20260906061504 | 76 | 353 | 2.0 | 4.0 | 0.00 | 0.00 | 0.00 | 92 | 1015.3 |
| 20260906061004 | 75 | 360 | 2.0 | 4.0 | 0.00 | 0.00 | 0.00 | 92 | 1015.3 |
| 20260906060504 | 74 | 6 | 2.0 | 4.0 | 0.00 | 0.00 | 0.00 | 92 | 1015.3 |
| 20260906060004 | 73 | 360 | 2.0 | 4.0 | 0.00 | 0.00 | 0.00 | 93 | 1015.3 |
| 20260906055715 | 73 | 351 | 2.0 | 3.0 | 0.00 | 0.00 | 0.00 | 93 | 1015.3 |
| 20260906055004 | 72 | 345 | 3.0 | 4.0 | 0.00 | 0.00 | 0.00 | 92 | 1015.3 |
| 20260906054504 | 71 | 346 | 3.0 | 5.0 | 0.00 | 0.00 | 0.00 | 92 | 1015.3 |
| 20260906054214 | 71 | 347 | 2.0 | 5.0 | 0.00 | 0.00 | 0.00 | 92 | 1015.3 |
| 20260906053504 | 70 | 15 | 2.0 | 5.0 | 0.00 | 0.00 | 0.00 | 91 | 1015.3 |
| 20260906053215 | 70 | 13 | 3.0 | 5.0 | 0.00 | 0.00 | 0.00 | 90 | 1015.3 |
| 20260906052505 | 70 | 356 | 3.0 | 4.0 | 0.00 | 0.00 | 0.00 | 90 | 1015.3 |
| 20260906052004 | 70 | 356 | 3.0 | 4.0 | 0.00 | 0.00 | 0.00 | 89 | 1015.3 |
| 20260906051504 | 70 | 360 | 3.0 | 4.0 | 0.00 | 0.00 | 0.00 | 89 | 1015.3 |
| 20260906051004 | 70 | 2 | 3.0 | 4.0 | 0.00 | 0.00 | 0.00 | 89 | 1015.3 |
| 20260906050504 | 69 | 12 | 3.0 | 4.0 | 0.00 | 0.00 | 0.00 | 88 | 1015.3 |
| 20260906050004 | 69 | 19 | 3.0 | 3.0 | 0.00 | 0.00 | 0.00 | 88 | 1015.3 |
| 20260906045504 | 69 | 14 | 2.0 | 3.0 | 0.00 | 0.00 | 0.00 | 87 | 1015.3 |
| 20260906045003 | 69 | 3 | 1.0 | 2.0 | 0.00 | 0.00 | 0.00 | 87 | 1015.3 |
| 20260906044504 | 69 | 315 | 0.0 | 1.0 | 0.00 | 0.00 | 0.00 | 87 | 1015.3 |
| 20260906044215 | 70 | 315 | 0.0 | 1.0 | 0.00 | 0.00 | 0.00 | 87 | 1015.3 |
| 20260906043504 | 70 | 353 | 1.0 | 2.0 | 0.00 | 0.00 | 0.00 | 86 | 1015.3 |
| 20260906043004 | 70 | 321 | 1.0 | 3.0 | 0.00 | 0.00 | 0.00 | 86 | 1015.3 |
| 20260906042503 | 70 | 315 | 1.0 | 3.0 | 0.00 | 0.00 | 0.00 | 86 | 1015.3 |
| 20260906042003 | 70 | 331 | 1.0 | 3.0 | 0.00 | 0.00 | 0.00 | 86 | 1015.3 |
| 20260906041504 | 70 | 360 | 1.0 | 2.0 | 0.00 | 0.00 | 0.00 | 86 | 1015.3 |
| 20260906041004 | 70 | 360 | 1.0 | 2.0 | 0.00 | 0.00 | 0.00 | 86 | 1015.3 |
| 20260906040715 | 70 | 360 | 0.0 | 2.0 | 0.00 | 0.00 | 0.00 | 86 | 1015.3 |
| 20260906040003 | 70 | 360 | 0.0 | 2.0 | 0.00 | 0.00 | 0.00 | 86 | 1015.3 |
| 20260906035503 | 70 | 0 | 0.0 | 0.0 | 0.00 | 0.00 | 0.00 | 86 | 1015.3 |
| 20260906035003 | 70 | 315 | 1.0 | 3.0 | 0.00 | 0.00 | 0.00 | 86 | 1015.3 |
| 20260906034503 | 71 | 329 | 2.0 | 3.0 | 0.00 | 0.00 | 0.00 | 86 | 1015.3 |
| 20260906034003 | 71 | 326 | 2.0 | 3.0 | 0.00 | 0.00 | 0.00 | 86 | 1015.3 |
| 20260906033504 | 71 | 315 | 2.0 | 3.0 | 0.00 | 0.00 | 0.00 | 85 | 1015.3 |
| 20260906033003 | 71 | 332 | 3.0 | 5.0 | 0.00 | 0.00 | 0.00 | 85 | 1015.3 |
| 20260906032503 | 71 | 342 | 3.0 | 5.0 | 0.00 | 0.00 | 0.00 | 85 | 1015.3 |
| 20260906032003 | 71 | 337 | 3.0 | 5.0 | 0.00 | 0.00 | 0.00 | 85 | 1015.3 |
| 20260906031715 | 71 | 337 | 3.0 | 6.0 | 0.00 | 0.00 | 0.00 | 84 | 1015.3 |
| 20260906031004 | 71 | 327 | 3.0 | 6.0 | 0.00 | 0.00 | 0.00 | 84 | 1015.3 |
| 20260906030503 | 71 | 320 | 2.0 | 4.0 | 0.00 | 0.00 | 0.00 | 84 | 1015.3 |
| 20260906030214 | 71 | 322 | 2.0 | 5.0 | 0.00 | 0.00 | 0.00 | 84 | 1015.3 |
| 20260906025503 | 71 | 317 | 4.0 | 5.0 | 0.00 | 0.00 | 0.00 | 83 | 1015.3 |
| 20260906025003 | 71 | 315 | 4.0 | 6.0 | 0.00 | 0.00 | 0.00 | 83 | 1015.3 |
| 20260906024504 | 72 | 310 | 5.0 | 8.0 | 0.00 | 0.00 | 0.00 | 83 | 1015.3 |
| 20260906024003 | 72 | 306 | 5.0 | 8.0 | 0.00 | 0.00 | 0.00 | 83 | 1015.3 |
| 20260906023503 | 72 | 304 | 4.0 | 7.0 | 0.00 | 0.00 | 0.00 | 83 | 1015.3 |
| 20260906023004 | 72 | 301 | 4.0 | 7.0 | 0.00 | 0.00 | 0.00 | 83 | 1015.3 |
| 20260906022504 | 72 | 303 | 4.0 | 5.0 | 0.00 | 0.00 | 0.00 | 83 | 1015.3 |
| 20260906022004 | 72 | 313 | 3.0 | 4.0 | 0.00 | 0.00 | 0.00 | 83 | 1015.3 |
| 20260906021504 | 72 | 325 | 3.0 | 5.0 | 0.00 | 0.00 | 0.00 | 82 | 1015.3 |
| 20260906021004 | 72 | 330 | 2.0 | 5.0 | 0.00 | 0.00 | 0.00 | 82 | 1015.3 |
| 20260906020504 | 72 | 325 | 1.0 | 2.0 | 0.00 | 0.00 | 0.00 | 82 | 1015.3 |
| 20260906020004 | 72 | 355 | 1.0 | 3.0 | 0.00 | 0.00 | 0.00 | 82 | 1015.3 |
| 20260906015504 | 72 | 360 | 2.0 | 4.0 | 0.00 | 0.00 | 0.00 | 82 | 1015.3 |
| 20260906015004 | 72 | 360 | 3.0 | 4.0 | 0.00 | 0.00 | 0.00 | 81 | 1015.3 |
| 20260906014504 | 72 | 360 | 3.0 | 4.0 | 0.00 | 0.00 | 0.00 | 80 | 1015.3 |
| 20260906014004 | 72 | 360 | 3.0 | 4.0 | 0.00 | 0.00 | 0.00 | 79 | 1015.3 |
| 20260906013505 | 72 | 360 | 2.0 | 4.0 | 0.00 | 0.00 | 0.00 | 78 | 1015.3 |
| 20260906013217 | 72 | 360 | 2.0 | 4.0 | 0.00 | 0.00 | 0.00 | 77 | 1015.3 |
| 20260906012715 | 72 | 352 | 2.0 | 3.0 | 0.00 | 0.00 | 0.00 | 77 | 1015.3 |
| 20260906012004 | 72 | 355 | 2.0 | 3.0 | 0.00 | 0.00 | 0.00 | 76 | 1015.3 |
| 20260906011716 | 72 | 4 | 2.0 | 3.0 | 0.00 | 0.00 | 0.00 | 76 | 1015.3 |
| 20260906011004 | 72 | 3 | 3.0 | 4.0 | 0.00 | 0.00 | 0.00 | 75 | 1015.3 |
| 20260906010504 | 73 | 351 | 2.0 | 4.0 | 0.00 | 0.00 | 0.00 | 75 | 1015.3 |
| 20260906010215 | 73 | 347 | 2.0 | 4.0 | 0.00 | 0.00 | 0.00 | 75 | 1015.3 |
| 20260906005504 | 74 | 360 | 1.0 | 2.0 | 0.00 | 0.00 | 0.00 | 74 | 1015.3 |
| 20260906005003 | 74 | 360 | 2.0 | 3.0 | 0.00 | 0.00 | 0.00 | 74 | 1015.3 |
| 20260906004504 | 75 | 360 | 1.0 | 3.0 | 0.00 | 0.00 | 0.00 | 74 | 1015.3 |
| 20260906004003 | 75 | 360 | 1.0 | 3.0 | 0.00 | 0.00 | 0.00 | 74 | 1015.3 |
| 20260906003503 | 75 | 360 | 1.0 | 3.0 | 0.00 | 0.00 | 0.00 | 74 | 1015.3 |
| 20260906003003 | 76 | 360 | 0.0 | 2.0 | 0.00 | 0.00 | 0.00 | 74 | 1015.3 |
| 20260906002503 | 76 | 0 | 0.0 | 0.0 | 0.00 | 0.00 | 0.00 | 74 | 1015.3 |
| 20260906002214 | 76 | 270 | 0.0 | 2.0 | 0.00 | 0.00 | 0.00 | 74 | 1015.3 |
| 20260906001503 | 76 | 270 | 1.0 | 4.0 | 0.00 | 0.00 | 0.00 | 74 | 1015.3 |
| 20260906001003 | 76 | 5 | 1.0 | 3.0 | 0.00 | 0.00 | 0.00 | 74 | 1015.3 |
| 20260906000503 | 76 | 14 | 1.0 | 3.0 | 0.00 | 0.00 | 0.00 | 74 | 1015.3 |
| 20260906000003 | 76 | 15 | 1.0 | 3.0 | 0.00 | 0.00 | 0.00 | 74 | 1015.3 |
| 20260905235503 | 76 | 166 | 1.0 | 2.0 | 0.00 | 0.00 | 0.00 | 74 | 1015.3 |
| 20260905235003 | 76 | 177 | 1.0 | 2.0 | 0.00 | 0.00 | 0.00 | 73 | 1015.3 |
| 20260905234503 | 76 | 327 | 2.0 | 5.0 | 0.00 | 0.00 | 0.00 | 73 | 1015.3 |
| 20260905234213 | 76 | 326 | 4.0 | 6.0 | 0.00 | 0.00 | 0.00 | 73 | 1015.3 |
| 20260905233503 | 76 | 319 | 4.0 | 6.0 | 0.00 | 0.00 | 0.00 | 73 | 1015.3 |
| 20260905233003 | 76 | 318 | 3.0 | 4.0 | 0.00 | 0.00 | 0.00 | 73 | 1015.3 |
| 20260905232503 | 76 | 336 | 2.0 | 4.0 | 0.00 | 0.00 | 0.00 | 73 | 1015.3 |
| 20260905232003 | 76 | 343 | 3.0 | 5.0 | 0.00 | 0.00 | 0.00 | 73 | 1015.3 |
| 20260905231503 | 76 | 326 | 4.0 | 5.0 | 0.00 | 0.00 | 0.00 | 73 | 1015.3 |
| 20260905231003 | 76 | 326 | 4.0 | 6.0 | 0.00 | 0.00 | 0.00 | 73 | 1015.3 |
| 20260905230503 | 77 | 326 | 5.0 | 6.0 | 0.00 | 0.00 | 0.00 | 73 | 1015.3 |
| 20260905230216 | 77 | 326 | 5.0 | 7.0 | 0.00 | 0.00 | 0.00 | 73 | 1015.3 |
| 20260905225503 | 77 | 326 | 5.0 | 7.0 | 0.00 | 0.00 | 0.00 | 74 | 1015.3 |
| 20260905225003 | 77 | 324 | 5.0 | 6.0 | 0.00 | 0.00 | 0.00 | 73 | 1015.3 |
| 20260905224715 | 77 | 320 | 5.0 | 7.0 | 0.00 | 0.00 | 0.00 | 73 | 1015.3 |
| 20260905224004 | 78 | 321 | 4.0 | 7.0 | 0.00 | 0.00 | 0.00 | 74 | 1015.3 |
| 20260905223504 | 78 | 318 | 3.0 | 5.0 | 0.00 | 0.00 | 0.00 | 74 | 1015.3 |
| 20260905223214 | 78 | 325 | 3.0 | 5.0 | 0.00 | 0.00 | 0.00 | 74 | 1015.3 |
| 20260905222504 | 78 | 345 | 4.0 | 5.0 | 0.00 | 0.00 | 0.00 | 74 | 1015.3 |
| 20260905222004 | 78 | 346 | 3.0 | 5.0 | 0.00 | 0.00 | 0.00 | 74 | 1015.3 |
| 20260905221718 | 78 | 352 | 3.0 | 4.0 | 0.00 | 0.00 | 0.00 | 74 | 1015.3 |
| 20260905221004 | 78 | 337 | 3.0 | 4.0 | 0.00 | 0.00 | 0.00 | 74 | 1015.3 |
| 20260905220504 | 78 | 337 | 5.0 | 9.0 | 0.00 | 0.00 | 0.00 | 74 | 1015.3 |
| 20260905220004 | 78 | 337 | 5.0 | 9.0 | 0.00 | 0.00 | 0.00 | 74 | 1015.3 |
| 20260905215715 | 77 | 332 | 4.0 | 7.0 | 0.00 | 0.00 | 0.00 | 74 | 1015.3 |
| 20260905215004 | 77 | 330 | 6.0 | 9.0 | 0.00 | 0.00 | 0.00 | 74 | 1015.3 |
| 20260905214504 | 77 | 333 | 7.0 | 9.0 | 0.00 | 0.00 | 0.00 | 74 | 1015.3 |
| 20260905214004 | 77 | 315 | 7.0 | 8.0 | 0.00 | 0.00 | 0.00 | 73 | 1015.3 |
| 20260905213504 | 77 | 319 | 5.0 | 8.0 | 0.00 | 0.00 | 0.00 | 73 | 1015.3 |
| 20260905213004 | 77 | 328 | 4.0 | 6.0 | 0.00 | 0.00 | 0.00 | 73 | 1015.3 |